GW6952 Weather Reports


Display with metric or nautical units.
time (UTC)temp
F
wind
direction
speed
MPH
gust
MPH
rain 1hr
in
rain 24hr
in
rain mn
in
humidity
%
barometer
mb
20260505214016 60 293 2.0 5.0 0.00 0.00 0.00 54 1016.4
20260505213116 60 338 2.0 7.0 0.00 0.00 0.00 53 1016.5
20260505212016 60 293 2.0 7.0 0.00 0.00 0.00 53 1016.6
20260505211016 61 248 2.0 5.0 0.00 0.00 0.00 53 1016.6
20260505210016 60 270 1.0 4.0 0.00 0.00 0.00 53 1016.5
20260505205016 60 248 1.0 2.0 0.00 0.00 0.00 53 1016.6
20260505204016 60 338 3.0 8.0 0.00 0.00 0.00 54 1016.6
20260505203036 59 338 3.0 6.0 0.00 0.00 0.00 55 1016.8
20260505202016 59 45 2.0 5.0 0.00 0.00 0.00 55 1016.8
20260505201016 59 338 2.0 4.0 0.00 0.00 0.00 54 1016.9
20260505200016 59 293 1.0 4.0 0.00 0.00 0.00 54 1016.9
20260505195016 59 338 3.0 7.0 0.00 0.00 0.00 55 1017.0
20260505194016 58 338 3.0 5.0 0.00 0.00 0.00 55 1017.0
20260505193016 58 23 2.0 4.0 0.00 0.00 0.00 56 1017.0
20260505192015 58 23 2.0 5.0 0.00 0.00 0.00 56 1017.1
20260505191016 58 45 3.0 8.0 0.00 0.00 0.00 57 1017.0
20260505190015 58 0 3.0 6.0 0.00 0.00 0.00 56 1016.9
20260505185015 57 338 4.0 9.0 0.00 0.00 0.00 56 1016.9
20260505184015 58 338 4.0 9.0 0.00 0.00 0.00 55 1017.0
20260505183015 57 338 5.0 9.0 0.00 0.00 0.00 55 1016.8
20260505182016 57 293 3.0 8.0 0.00 0.00 0.00 55 1016.9
20260505181015 57 293 3.0 7.0 0.00 0.00 0.00 55 1016.7
20260505180035 57 270 1.0 4.0 0.00 0.00 0.00 55 1016.7
20260505175015 57 338 2.0 5.0 0.00 0.00 0.00 55 1016.6
20260505174015 57 293 2.0 4.0 0.00 0.00 0.00 55 1016.5
20260505173016 56 293 2.0 5.0 0.00 0.00 0.00 55 1016.3
20260505172036 56 293 1.0 3.0 0.00 0.00 0.00 55 1016.3
20260505171016 56 338 2.0 5.0 0.00 0.00 0.00 55 1016.4
20260505170016 56 315 2.0 4.0 0.00 0.00 0.00 55 1016.3
20260505165015 56 338 3.0 7.0 0.00 0.00 0.00 55 1016.3
20260505164016 56 338 2.0 5.0 0.00 0.00 0.00 55 1016.3
20260505163016 56 315 3.0 5.0 0.00 0.00 0.00 55 1016.3
20260505162015 56 270 1.0 3.0 0.00 0.00 0.00 57 1016.2
20260505161016 56 270 1.0 2.0 0.00 0.00 0.00 57 1016.1
20260505153015 55 225 1.0 2.0 0.00 0.00 0.00 57 1015.9
20260505152015 54 0.0 2.0 0.00 0.00 0.00 58 1015.8
20260505151015 54 0.0 1.0 0.00 0.00 0.00 59 1015.8
20260505125017 52 0.0 0.0 0.00 0.00 0.00 59 1015.1
20260505124017 52 0.0 0.0 0.00 0.00 0.00 59 1015.1
20260505123017 52 0.0 0.0 0.00 0.00 0.00 59 1015.3
20260505122017 53 0.0 0.0 0.00 0.00 0.00 59 1015.2
20260505121017 53 0.0 0.0 0.00 0.00 0.00 58 1015.5
20260505120017 53 0.0 1.0 0.00 0.00 0.00 58 1015.6
20260505115016 53 0.0 2.0 0.00 0.00 0.00 58 1015.4
20260505114038 53 0.0 2.0 0.00 0.00 0.00 58 1015.5
20260505113017 53 0.0 2.0 0.00 0.00 0.00 57 1015.5
20260505112016 53 0.0 1.0 0.00 0.00 0.00 57 1015.3
20260505111016 53 315 2.0 4.0 0.00 0.00 0.00 57 1015.4
20260505102016 53 315 1.0 3.0 0.00 0.00 0.00 55 1015.4
20260505101016 53 338 3.0 7.0 0.00 0.00 0.00 55 1015.4
20260505100016 53 315 2.0 7.0 0.00 0.00 0.00 55 1015.4
20260505095017 53 315 1.0 3.0 0.00 0.00 0.00 55 1015.4
20260505094016 54 315 2.0 5.0 0.00 0.00 0.00 55 1015.7
20260505093017 54 315 3.0 7.0 0.00 0.00 0.00 56 1015.7
20260505092036 54 315 2.0 4.0 0.00 0.00 0.00 56 1015.6
20260505091016 54 315 4.0 8.0 0.00 0.00 0.00 56 1015.7
20260505090016 54 315 3.0 7.0 0.00 0.00 0.00 56 1016.0
20260505085016 54 338 5.0 10.0 0.00 0.00 0.00 56 1016.0
20260505084016 54 338 5.0 11.0 0.00 0.00 0.00 56 1016.1
20260505083016 54 338 8.0 12.0 0.00 0.00 0.00 56 1016.1
20260505082016 55 315 5.0 10.0 0.00 0.00 0.00 57 1016.1
20260505081016 55 315 4.0 10.0 0.00 0.00 0.00 58 1016.0
20260505080016 55 338 6.0 11.0 0.00 0.00 0.00 59 1016.2
20260505075016 55 338 4.0 7.0 0.00 0.00 0.00 59 1016.1
20260505074016 55 338 5.0 9.0 0.00 0.00 0.00 60 1016.1
20260505073016 55 338 4.0 7.0 0.00 0.00 0.00 60 1016.0
20260505072016 55 338 4.0 8.0 0.00 0.00 0.00 60 1016.0
20260505071056 55 315 2.0 6.0 0.00 0.00 0.00 60 1015.9
20260505070617 55 293 1.0 1.0 0.00 0.00 0.00 60 1015.9
20260505070016 55 293 2.0 5.0 0.00 0.00 0.00 60 1015.9
20260505065035 55 0.0 2.0 0.00 0.00 0.00 60 1015.9
20260505064015 55 0.0 2.0 0.00 0.00 0.00 60 1015.8
20260505063015 55 315 1.0 3.0 0.00 0.00 0.00 60 1015.8
20260505062015 55 0.0 2.0 0.00 0.00 0.00 60 1015.6
20260505061016 55 315 1.0 4.0 0.00 0.00 0.00 60 1015.6
20260505060015 56 293 2.0 4.0 0.00 0.00 0.00 60 1015.8
20260505055015 56 315 2.0 7.0 0.00 0.00 0.00 59 1015.8
20260505054015 56 293 3.0 8.0 0.00 0.00 0.00 58 1016.0
20260505053016 56 293 2.0 7.0 0.00 0.00 0.00 58 1016.1
20260505052015 56 338 4.0 9.0 0.00 0.00 0.00 58 1016.2
20260505051016 56 338 8.0 12.0 0.00 0.00 0.00 57 1016.1
20260505041017 58 338 5.0 9.0 0.00 0.00 0.00 56 1015.6
20260505040017 58 338 5.0 9.0 0.00 0.00 0.00 56 1015.5
20260505035017 58 338 6.0 10.0 0.00 0.00 0.00 55 1015.2
20260505034017 58 338 3.0 5.0 0.00 0.00 0.00 54 1015.1
20260505033017 58 338 4.0 8.0 0.00 0.00 0.00 54 1015.0
20260505032017 58 338 5.0 10.0 0.00 0.00 0.00 54 1014.9
20260505031037 59 315 4.0 10.0 0.00 0.00 0.00 54 1014.9
20260505030017 59 338 6.0 10.0 0.00 0.00 0.00 53 1015.0
20260505025017 59 338 5.0 9.0 0.00 0.00 0.00 53 1015.0
20260505024017 59 338 6.0 11.0 0.00 0.00 0.00 52 1014.9
20260505023017 59 338 7.0 12.0 0.00 0.00 0.00 51 1014.9
20260505022017 60 338 5.0 10.0 0.00 0.00 0.00 50 1014.7
20260505021017 60 338 5.0 9.0 0.00 0.00 0.00 50 1014.7
20260505020017 60 338 5.0 11.0 0.00 0.00 0.00 50 1014.6
20260505015017 60 338 5.0 9.0 0.00 0.00 0.00 50 1014.6
20260505014017 61 338 5.0 11.0 0.00 0.00 0.00 50 1014.7
20260505013017 61 338 7.0 12.0 0.00 0.00 0.00 50 1014.7
20260505012017 61 338 6.0 11.0 0.00 0.00 0.00 50 1014.8
20260505011037 61 315 5.0 10.0 0.00 0.00 0.00 50 1014.9
20260505010017 61 338 7.0 11.0 0.00 0.00 0.00 49 1014.9
20260505005017 62 338 7.0 10.0 0.00 0.00 0.00 49 1015.0
20260505004016 62 338 7.0 12.0 0.00 0.00 0.00 49 1015.0
20260505003016 62 338 7.0 11.0 0.00 0.00 0.00 48 1015.0
20260505002016 63 315 6.0 11.0 0.00 0.00 0.00 48 1014.9
20260505001016 64 338 9.0 15.0 0.00 0.00 0.00 47 1014.8
20260505000017 63 338 8.0 13.0 0.00 0.00 0.00 48 1014.7
20260504235017 63 338 7.0 11.0 0.00 0.00 0.00 48 1014.7
20260504234016 63 338 7.0 14.0 0.00 0.00 0.00 48 1014.7
20260504233037 63 315 7.0 13.0 0.00 0.00 0.00 47 1014.7
20260504232016 64 338 7.0 12.0 0.00 0.00 0.00 47 1014.8
20260504231016 64 293 4.0 8.0 0.00 0.00 0.00 46 1014.8
20260504230016 63 270 2.0 6.0 0.00 0.00 0.00 47 1014.8
20260504225016 63 270 2.0 6.0 0.00 0.00 0.00 47 1014.8
20260504224016 64 248 2.0 6.0 0.00 0.00 0.00 46 1014.8
20260504223037 65 293 4.0 7.0 0.00 0.00 0.00 44 1014.8
20260504222036 64 338 4.0 8.0 0.00 0.00 0.00 44 1014.9
20260504221036 65 293 4.0 8.0 0.00 0.00 0.00 43 1015.0
20260504220016 65 315 3.0 9.0 0.00 0.00 0.00 43 1015.0
20260504215016 64 338 2.0 5.0 0.00 0.00 0.00 43 1015.0